TimeEST,TemperatureF,Dew PointF,Humidity,Sea Level PressureIn,VisibilityMPH,Wind Direction,Wind SpeedMPH,Gust SpeedMPH,PrecipitationIn,Events,Conditions,WindDirDegrees,DateUTC
12:15 AM,48.2,39.9,73,29.83,10.0,South,16.1,21.9,N/A,,Overcast,170,2013-02-11 05:15:00
12:35 AM,48.0,40.1,74,29.81,10.0,South,16.1,-,N/A,,Overcast,170,2013-02-11 05:35:00
12:55 AM,48.0,40.3,75,29.81,10.0,South,18.4,23.0,N/A,,Overcast,170,2013-02-11 05:55:00
1:15 AM,47.8,40.5,76,29.80,10.0,South,16.1,20.7,N/A,,Light Drizzle,180,2013-02-11 06:15:00
1:35 AM,47.5,40.8,78,29.80,7.0,South,15.0,-,N/A,Rain,Light Rain,180,2013-02-11 06:35:00
1:55 AM,47.1,41.4,80,29.81,10.0,South,13.8,20.7,N/A,Rain,Light Rain,190,2013-02-11 06:55:00
2:15 AM,46.6,41.7,83,29.81,10.0,South,15.0,-,N/A,,Light Drizzle,180,2013-02-11 07:15:00
2:35 AM,46.4,41.9,84,29.81,10.0,South,15.0,-,N/A,,Overcast,180,2013-02-11 07:35:00
2:55 AM,46.4,41.9,84,29.80,10.0,South,15.0,19.6,N/A,,Overcast,180,2013-02-11 07:55:00
3:15 AM,46.6,42.1,84,29.79,10.0,South,13.8,-,N/A,,Overcast,170,2013-02-11 08:15:00
3:35 AM,46.8,42.1,84,29.78,10.0,South,11.5,-,N/A,,Overcast,180,2013-02-11 08:35:00
3:55 AM,46.9,42.4,84,29.78,10.0,South,12.7,-,N/A,,Overcast,190,2013-02-11 08:55:00
4:15 AM,47.3,42.8,84,29.78,10.0,South,10.4,-,N/A,,Overcast,180,2013-02-11 09:15:00
4:35 AM,47.3,42.8,84,29.78,10.0,South,10.4,-,N/A,,Overcast,180,2013-02-11 09:35:00
4:55 AM,47.3,42.8,84,29.78,10.0,South,11.5,-,N/A,,Overcast,170,2013-02-11 09:55:00
5:15 AM,46.8,42.6,85,29.77,10.0,South,13.8,-,N/A,,Scattered Clouds,180,2013-02-11 10:15:00
5:35 AM,48.2,43.5,84,29.76,10.0,South,13.8,-,N/A,,Clear,180,2013-02-11 10:35:00
5:55 AM,48.2,43.5,84,29.76,10.0,South,13.8,-,N/A,,Clear,180,2013-02-11 10:55:00
6:15 AM,46.9,42.8,86,29.75,10.0,South,11.5,-,N/A,,Clear,180,2013-02-11 11:15:00
6:55 AM,48.6,44.1,84,29.76,10.0,SSW,16.1,19.6,N/A,,Mostly Cloudy,210,2013-02-11 11:55:00
7:15 AM,49.5,44.6,83,29.76,10.0,SSW,17.3,21.9,N/A,,Scattered Clouds,210,2013-02-11 12:15:00
7:35 AM,49.3,44.2,83,29.76,10.0,SSW,15.0,-,N/A,,Scattered Clouds,210,2013-02-11 12:35:00
7:55 AM,49.3,43.9,82,29.77,10.0,SW,15.0,21.9,N/A,,Scattered Clouds,220,2013-02-11 12:55:00
8:15 AM,50.2,43.9,79,29.77,10.0,SW,15.0,23.0,N/A,,Scattered Clouds,220,2013-02-11 13:15:00
8:35 AM,51.8,44.1,75,29.77,10.0,SW,17.3,27.6,N/A,,Scattered Clouds,220,2013-02-11 13:35:00
8:55 AM,53.1,43.3,70,29.77,10.0,SW,24.2,31.1,N/A,,Scattered Clouds,230,2013-02-11 13:55:00
9:15 AM,53.6,41.5,64,29.77,10.0,SW,21.9,29.9,N/A,,Clear,220,2013-02-11 14:15:00
9:35 AM,54.3,40.6,60,29.78,10.0,SW,28.8,40.3,N/A,,Scattered Clouds,230,2013-02-11 14:35:00
9:55 AM,54.5,36.9,51,29.78,10.0,WSW,28.8,40.3,N/A,,Scattered Clouds,240,2013-02-11 14:55:00
10:15 AM,54.3,35.8,50,29.78,10.0,SW,23.0,36.8,N/A,,Clear,230,2013-02-11 15:15:00
10:35 AM,53.8,34.9,49,29.78,10.0,WSW,28.8,40.3,N/A,,Clear,240,2013-02-11 15:35:00
10:55 AM,54.5,32.4,43,29.78,10.0,WSW,34.5,43.7,N/A,,Clear,240,2013-02-11 15:55:00
11:15 AM,54.9,31.1,40,29.79,10.0,WSW,29.9,38.0,N/A,,Clear,250,2013-02-11 16:15:00
11:35 AM,54.9,31.8,42,29.81,10.0,West,27.6,34.5,N/A,,Scattered Clouds,260,2013-02-11 16:35:00
11:55 AM,54.7,31.1,41,29.81,10.0,WSW,27.6,36.8,N/A,,Scattered Clouds,250,2013-02-11 16:55:00
12:15 PM,54.9,29.7,38,29.82,10.0,WSW,27.6,38.0,N/A,,Mostly Cloudy,250,2013-02-11 17:15:00
12:35 PM,53.4,27.0,36,29.82,10.0,WSW,31.1,44.9,N/A,,Scattered Clouds,250,2013-02-11 17:35:00
12:55 PM,52.3,26.4,37,29.81,10.0,WSW,29.9,38.0,N/A,,Clear,250,2013-02-11 17:55:00
1:15 PM,52.2,27.7,39,29.82,10.0,West,23.0,36.8,N/A,,Clear,260,2013-02-11 18:15:00
1:35 PM,52.2,28.6,40,29.82,10.0,West,28.8,33.4,N/A,,Scattered Clouds,260,2013-02-11 18:35:00
1:55 PM,50.9,28.6,42,29.83,10.0,West,27.6,38.0,N/A,,Mostly Cloudy,260,2013-02-11 18:55:00
2:15 PM,49.8,28.2,43,29.84,10.0,West,29.9,40.3,N/A,,Mostly Cloudy,260,2013-02-11 19:15:00
2:35 PM,50.0,27.1,41,29.85,10.0,West,29.9,36.8,N/A,,Scattered Clouds,260,2013-02-11 19:35:00
2:55 PM,49.6,26.2,40,29.85,10.0,West,27.6,33.4,N/A,,Clear,260,2013-02-11 19:55:00
3:15 PM,49.3,25.9,40,29.86,10.0,West,24.2,38.0,N/A,,Clear,260,2013-02-11 20:15:00
3:35 PM,49.3,26.6,41,29.86,10.0,West,28.8,32.2,N/A,,Clear,260,2013-02-11 20:35:00
3:55 PM,49.1,26.8,42,29.86,10.0,West,24.2,36.8,N/A,,Scattered Clouds,260,2013-02-11 20:55:00
4:15 PM,48.9,26.2,41,29.87,10.0,West,27.6,33.4,N/A,,Mostly Cloudy,260,2013-02-11 21:15:00
4:35 PM,48.7,26.2,42,29.87,10.0,West,24.2,33.4,N/A,,Overcast,260,2013-02-11 21:35:00
4:55 PM,48.0,26.6,43,29.88,10.0,West,20.7,28.8,N/A,,Overcast,260,2013-02-11 21:55:00
5:55 PM,45.5,26.4,47,29.90,10.0,West,12.7,-,N/A,,Mostly Cloudy,270,2013-02-11 22:55:00
6:15 PM,44.6,26.6,49,29.91,10.0,West,15.0,21.9,N/A,,Mostly Cloudy,270,2013-02-11 23:15:00
6:35 PM,43.9,26.8,51,29.92,10.0,WNW,15.0,20.7,N/A,,Mostly Cloudy,290,2013-02-11 23:35:00
6:55 PM,42.4,27.0,54,29.93,10.0,West,16.1,-,N/A,,Scattered Clouds,280,2013-02-11 23:55:00
7:15 PM,42.1,27.3,56,29.94,10.0,West,17.3,20.7,N/A,,Mostly Cloudy,270,2013-02-12 00:15:00
7:35 PM,42.1,27.3,56,29.95,10.0,West,17.3,27.6,N/A,,Overcast,280,2013-02-12 00:35:00
7:55 PM,41.5,27.3,57,29.96,10.0,West,13.8,20.7,N/A,,Overcast,280,2013-02-12 00:55:00
8:15 PM,41.4,26.8,56,29.97,10.0,West,11.5,18.4,N/A,,Overcast,270,2013-02-12 01:15:00
8:35 PM,41.0,26.6,57,29.97,10.0,West,10.4,-,N/A,,Overcast,260,2013-02-12 01:35:00
8:55 PM,40.6,26.4,57,29.97,10.0,West,9.2,-,N/A,,Overcast,260,2013-02-12 01:55:00
9:15 PM,40.6,26.4,57,29.98,10.0,West,11.5,18.4,N/A,,Overcast,260,2013-02-12 02:15:00
9:35 PM,41.0,26.4,56,29.98,10.0,West,11.5,-,N/A,,Overcast,260,2013-02-12 02:35:00
9:55 PM,40.6,27.0,58,29.99,10.0,WSW,9.2,-,N/A,,Overcast,250,2013-02-12 02:55:00
10:15 PM,40.6,27.1,59,29.99,10.0,West,9.2,-,N/A,,Overcast,260,2013-02-12 03:15:00
10:35 PM,40.6,27.3,59,30.00,10.0,West,10.4,-,N/A,,Overcast,260,2013-02-12 03:35:00
11:15 PM,41.0,26.1,55,30.00,10.0,West,11.5,21.9,N/A,,Overcast,270,2013-02-12 04:15:00
11:35 PM,41.0,26.2,56,30.00,10.0,West,13.8,18.4,N/A,,Overcast,280,2013-02-12 04:35:00
11:55 PM,40.8,26.1,56,30.01,10.0,West,13.8,18.4,N/A,,Overcast,270,2013-02-12 04:55:00